Regional Weather Roundup
Issued by NWS Charleston, SC

Current Version | Previous Version | Text Only | Print | Product List | Glossary Off
Versions: 1 2 3 4 5 6 7 8 9 10 11 12 13 14 15 16 17 18 19 20 21 22 23 24 25 26 27 28 29 30 31 32 33 34 35 36 37 38 39 40 41 42 43 44 45 46 47 48 49 50

000
ASUS42 KCHS 092310
RWRCHS
REGIONAL WEATHER ROUNDUP
NATIONAL WEATHER SERVICE CHARLESTON SC
700 PM EDT WED JUL 09 2014

NOTE: "FAIR" INDICATES FEW OR NO CLOUDS BELOW 12,000 FEET WITH NO
SIGNIFICANT WEATHER AND/OR OBSTRUCTIONS TO VISIBILITY.

NOT ALL STATIONS ARE QUALITY CONTROLLED BY THE NATIONAL
WEATHER SERVICE. USE DATA WITH CAUTION...ESPECIALLY
DEWPOINT OBSERVATIONS.

SCZ027-030-031-034>040-042>050-100000-
...SOUTH CAROLINA...

CITY           SKY/WX    TMP DP  RH WIND       PRES   REMARKS
N CHARLESTON   MOSUNNY   87  73  62 S17       30.00S HX  94
WATERFRONT PRK   N/A     82 N/A N/A S17G23      N/A
FORT JOHNSON   NOT AVBL
MOUNT PLEASANT FAIR      84  75  74 S17G23    30.01R HX  92
JOHNS ISLAND   CLEAR     84  72  65 S14       30.01S
PINOPOLIS        N/A     91  72  52 SW6       29.91R HX  98
MONCKS CORNER    N/A     88  77  70 S10G17    29.99R HX 100
SUMMERVILLE    FAIR      88  73  62 S10G16    30.00R HX  96
BEAUFORT MCAS  MOSUNNY   88  73  61 SW8G20    30.00R HX  95
BEAUFORT ARPT  NOT AVBL
HILTON HEAD IS MOSUNNY   84  75  74 S8G18     30.02S HX  92
GEORGETOWN     NOT AVBL
WALTERBORO     PTCLDY    88  68  51 S9        30.00R HX  91
ORANGEBURG     CLOUDY    90  64  42 S7        29.97R HX  91
BARNWELL       FAIR      93  64  38 SW8       29.97R HX  95
AIKEN          MOCLDY    77  72  83 NW12G21   30.05R
MANNING        FAIR      90  63  40 S9G16     29.97R HX  90
KINGSTREE      NOT AVBL
COLUMBIA       CLOUDY    81  72  74 N6        29.97F
SUMTER         PTSUNNY   88  69  53 N6        29.96R HX  92
FLORENCE       PTSUNNY   90  67  46 NW5       29.96R HX  93
MYRTLE BEACH   SUNNY     84  73  70 S20G26    29.99S HX  91
N MYRTLE BEACH SUNNY     83  75  77 SW22G30   30.00R HX  90

$$

GAZ063-065-086>088-099>101-113>116-118-119-134-136>141-150-100000-
...GEORGIA...

CITY           SKY/WX    TMP DP  RH WIND       PRES   REMARKS
SAVANNAH ARPT  TSTM      80  73  79 SW9       30.03R
HUNTER AAF     PTSUNNY   85  71  64 S2        30.00R HX  90
FORT STEWART   CLOUDY    81  73  77 NE12      30.00R THUNDER
STATESBORO     NOT AVBL
SYLVANIA       CLEAR     91  71  52 S6        29.99R HX  97
CLAXTON        FAIR      91  72  52 CALM      29.98R HX  98
THOMSON        CLOUDY    76  76 100 CALM      30.06S
AUGUSTA-BUSH   PTSUNNY   79  65  62 N12       29.99R
AUGUSTA-DANIEL LGT RAIN  79  68  69 N15       30.00F
SWAINSBORO     FAIR      95  68  41 S6        29.99R HX  99
VIDALIA          N/A     91  64  40 SW7       29.99R HX  93
ALMA           SUNNY     93  62  35 SW12      30.00R HX  93
WAYCROSS       SUNNY     94  72  48 SW13      30.01R HX 102
JESUP          NOT AVBL
BRUNSWICK      SUNNY     88  73  62 CALM      30.01R HX  96
SAINT SIMONS   SUNNY     84  75  74 S14G25    30.01S HX  92

$$

SCZ027-028-034-036>038-045-046-048>050-GAZ119-141-100000-
...LAKE AND SUPPLEMENTAL COASTAL OBSERVATIONS...

STATION/POSITION TIME  TEMP    WIND        PRES    WAVE   SWELL
                       AIR SEA DIR/SP/G            HT/PER HT/PER/DIR
                 (UTC) (F)     (DEG/KT/KT) (MB)    (FT/S) (FT/S/D)
UPR LAKE MARION  NOT AVBL
WINYAH BAY       2200   85     200/ 15     1016.0S
LAKE MURRAY      2200   81     310/  2/  3 1014.9R
ACE BASIN NERRS  2200   86     170/  2     1016.0S
FORT PULASKI     2300   84 78  170/  6/ 16   N/A
SAPELO ISLAND    2200   89     160/ 15     1017.0S

$$

ANZ835-935-AMZ111-154-330-350-352-354-374-450-454-472-100000-
...C-MAN AND BUOY OBSERVATIONS...

STATION/POSITION TIME  TEMP    WIND        PRES    WAVE   SWELL
                       AIR SEA DIR/SP/G            HT/PER HT/PER/DIR
                 (UTC) (F)     (DEG/KT/KT) (MB)    (FT/S) (FT/S/D)
FOLLY BEACH CMAN 2200   83     200/ 19/ 21 1016.6F
BUOY 41004       2300   82 82  190/ 17/ 21 1015.5F   4/ 8   2/ 8
BUOY 41008       2300   82 84  170/ 17/ 19 1015.8F   3/ 4   2/110/ 8
5E ST. MARYS GA  2200      84                N/A     3/ 3
FRYING PAN BUOY  NOT AVBL
BUOY 41025       2300          330/ 17/ 19 1016.2R   5/ 6
CAPE LOOKOUT NC  2200   83     200/ 18/ 21 1016.1R
BUOY 41002       2248   80 81  200/ 14/ 16 1020.3F   4/ 5   2/110/ 9
BUOY 41010       2300   81 83  190/ 12/ 16 1019.1R   3/ 9   2/120/ 9
BUOY 41012       NOT AVBL
ST AUGUSTINE FL  2300   82     170/ 18/ 19 1018.2R
CAPERS NEARSHORE 2200   82     210/ 17/ 19   N/A
FRIPP NEARSHORE  2200   85     200/ 16/ 19   N/A


$$



USA.gov is the U.S. government's official web portal to all federal, state and local government web resources and services.